This demonstration page uses our WeatherBlox Daily Observations layout. Learn more.

39.51506, -84.39828

Hourly Observations for November 16, 2018

Temp ( °F °C ) Dew Point ( °F °C ) Humidity (%) Winds ( mph kmh ) Pressure ( in mb ) Visibility ( mi km ) Precip ( " mm )
12:15 am 00:15 Cloudy 33 0.4 31 -0.4 94 94 SW 10 17 30.03 1017 7 11.26538 0 0
12:35 am 00:35 Cloudy 33 0.3 31 -0.7 93 93 WSW 13 20 30.03 1017 7 11.26538 0 0
12:55 am 00:55 Cloudy 32 0.2 30 -1 92 92 WSW 12 19 30.03 1017 7 11.26538 0 0
1:15 am 01:15 Cloudy 32 0.2 30 -1.2 90 90 WSW 14 22 30.06 1018 10 16.0934 0 0
1:35 am 01:35 Cloudy 32 0.1 30 -1 92 92 SW 12 19 30.03 1017 7 11.26538 0 0
1:55 am 01:55 Cloudy 32 0 30 -1.1 92 92 SW 12 19 30.03 1017 7 11.26538 0 0
2:15 am 02:15 Cloudy 32 0 29 -1.4 90 90 SW 14 22 30.03 1017 10 16.0934 0 0
2:35 am 02:35 Cloudy 32 0 29 -1.4 90 90 SW 12 19 30.03 1017 10 16.0934 0 0
2:55 am 02:55 Cloudy 32 -0.1 29 -1.8 88 88 SW 15 24 30.06 1018 10 16.0934 0 0
3:15 am 03:15 Cloudy 31 -0.3 29 -1.7 90 90 SSW 12 19 30.03 1017 7 11.26538 0 0
3:35 am 03:35 Cloudy 31 -0.5 28 -2 90 90 SW 18 30 30.03 1017 10 16.0934 0 0
3:55 am 03:55 Cloudy 31 -0.5 29 -1.8 91 91 SW 20 31 30.03 1017 7 11.26538 0 0
4:15 am 04:15 Cloudy 31 -0.5 29 -1.9 90 90 SW 13 20 30.03 1017 7 11.26538 0 0
4:35 am 04:35 Cloudy with Mist and Fog 31 -0.6 29 -1.7 92 92 SSW 17 28 30.03 1017 5 8.0467 0 0
4:55 am 04:55 Cloudy with Mist and Fog 31 -0.7 28 -2 91 91 SW 16 26 30.03 1017 7 11.26538 0 0
5:15 am 05:15 Cloudy 31 -0.7 28 -2 91 91 SW 12 19 30.03 1017 7 11.26538 0 0
5:35 am 05:35 Cloudy 31 -0.6 28 -2.2 89 89 SSW 12 19 30.03 1017 7 11.26538 0 0
5:55 am 05:55 Cloudy 31 -0.6 28 -2.1 90 90 SSW 13 20 30.03 1017 7 11.26538 0 0
6:15 am 06:15 Cloudy 31 -0.5 28 -2.3 88 88 SW 13 20 30.03 1017 10 16.0934 0 0
6:35 am 06:35 Cloudy 31 -0.4 28 -2.1 88 88 SSW 14 22 30.03 1017 10 16.0934 0 0
6:55 am 06:55 Cloudy 31 -0.3 28 -2 88 88 SSW 15 24 30 1016 10 16.0934 0 0
7:15 am 07:15 Cloudy 32 -0.2 28 -2 88 88 SSW 9 15 30.03 1017 10 16.0934 0 0
7:35 am 07:35 Cloudy 32 -0.2 29 -1.9 88 88 SSW 14 22 30.03 1017 10 16.0934 0 0
7:55 am 07:55 Cloudy 32 0 29 -1.8 88 88 SSW 15 24 30.03 1017 10 16.0934 0 0
8:15 am 08:15 Cloudy 32 0.2 29 -1.8 87 87 SSW 13 20 30.03 1017 10 16.0934 0 0
8:35 am 08:35 Cloudy 33 0.4 29 -1.6 87 87 SSW 17 28 30.03 1017 10 16.0934 0 0
8:55 am 08:55 Cloudy 33 0.6 29 -1.6 85 85 SSW 17 28 30.03 1017 10 16.0934 0 0
9:15 am 09:15 Cloudy 34 0.9 29 -1.4 85 85 SSW 18 30 30.03 1017 10 16.0934 0 0
9:35 am 09:35 Cloudy 34 1 29 -1.4 84 84 SW 13 20 30.03 1017 10 16.0934 0 0
9:55 am 09:55 Cloudy 34 1.1 29 -1.4 84 84 SW 15 24 30.03 1017 10 16.0934 0 0
10:15 am 10:15 Cloudy 34 1.3 30 -1.2 84 84 SSW 14 22 30.03 1017 10 16.0934 0 0
10:35 am 10:35 Cloudy 35 1.4 30 -1 84 84 SW 15 24 30.03 1017 10 16.0934 0 0
10:55 am 10:55 Cloudy 35 1.6 30 -1 83 83 SW 12 19 30.06 1018 10 16.0934 0 0
11:15 am 11:15 Cloudy 35 1.9 31 -0.8 83 83 SW 12 19 30.06 1018 10 16.0934 0 0
11:35 am 11:35 Cloudy 36 2 31 -0.7 83 83 SW 15 24 30.06 1018 10 16.0934 0 0
11:55 am 11:55 Cloudy 36 2.1 31 -0.6 83 83 SW 15 24 30.06 1018 10 16.0934 0 0
12:15 pm 12:15 Cloudy 36 2.2 31 -0.7 81 81 SW 16 26 30.06 1018 10 16.0934 0 0
12:35 pm 12:35 Cloudy 36 2.4 31 -0.4 82 82 SW 14 22 30.06 1018 10 16.0934 0 0
12:55 pm 12:55 Cloudy 37 2.5 31 -0.3 82 82 SW 13 20 30.06 1018 10 16.0934 0 0
1:15 pm 13:15 Cloudy 37 2.7 32 -0.1 82 82 SW 12 19 30.06 1018 10 16.0934 0 0
1:35 pm 13:35 Cloudy 37 2.7 32 0.1 83 83 SW 12 19 30.06 1018 10 16.0934 0 0
1:55 pm 13:55 Cloudy 37 2.8 32 0.1 83 83 SW 10 17 30.06 1018 7 11.26538 0 0
2:15 pm 14:15 Cloudy 38 3.1 33 0.4 83 83 SW 9 15 30.06 1018 10 16.0934 0 0
2:35 pm 14:35 Cloudy 38 3.2 33 0.5 83 83 SW 9 15 30.06 1018 10 16.0934 0 0
2:55 pm 14:55 Cloudy 38 3.2 33 0.7 84 84 SW 10 17 30.09 1019 10 16.0934 0 0
3:15 pm 15:15 Cloudy 38 3.3 33 0.8 84 84 WSW 9 15 30.09 1019 7 11.26538 0 0
3:35 pm 15:35 Cloudy 38 3.3 34 0.9 84 84 SW 9 15 30.09 1019 7 11.26538 0 0
3:55 pm 15:55 Cloudy 38 3.3 34 0.9 84 84 WSW 10 17 30.09 1019 7 11.26538 0 0
4:15 pm 16:15 Cloudy 38 3.3 34 0.9 84 84 WSW 9 15 30.12 1020 7 11.26538 0 0
4:35 pm 16:35 Cloudy 38 3.4 34 1.1 85 85 WSW 7 11 30.12 1020 7 11.26538 0 0
4:55 pm 16:55 Cloudy 38 3.4 34 1.1 85 85 SW 7 11 30.12 1020 7 11.26538 0 0
5:15 pm 17:15 Cloudy 38 3.4 34 1.2 86 86 SW 5 7 30.15 1021 7 11.26538 0 0
5:35 pm 17:35 Cloudy 38 3.4 34 1.3 86 86 SW 6 9 30.15 1021 7 11.26538 0 0
5:55 pm 17:55 Cloudy 38 3.4 34 1.3 86 86 SW 6 9 30.15 1021 10 16.0934 0 0
6:15 pm 18:15 Cloudy 38 3.5 34 1.3 86 86 SW 6 9 30.15 1021 10 16.0934 0 0
6:35 pm 18:35 Cloudy 38 3.5 34 1.2 85 85 W 5 7 30.15 1021 10 16.0934 0 0
6:55 pm 18:55 Cloudy 38 3.5 34 1.2 85 85 WSW 8 13 30.15 1021 10 16.0934 0 0
7:15 pm 19:15 Cloudy 38 3.6 34 1.2 85 85 SW 5 7 30.18 1022 10 16.0934 0 0
7:35 pm 19:35 Cloudy 38 3.6 34 1.2 85 85 WSW 5 7 30.18 1022 10 16.0934 0 0
7:55 pm 19:55 Cloudy 38 3.5 34 1.2 85 85 SSW 6 9 30.18 1022 10 16.0934 0 0
8:15 pm 20:15 Cloudy 38 3.4 34 1.2 86 86 SSW 7 11 30.18 1022 10 16.0934 0 0
8:35 pm 20:35 Cloudy 38 3.5 34 1.2 85 85 SSW 8 13 30.18 1022 10 16.0934 0 0
8:55 pm 20:55 Cloudy 38 3.4 34 1.1 85 85 SSW 8 13 30.18 1022 10 16.0934 0 0
9:15 pm 21:15 Cloudy 38 3.5 34 1.1 84 84 SSW 8 13 30.18 1022 10 16.0934 0 0
9:35 pm 21:35 Cloudy 38 3.3 34 1.2 86 86 SSW 6 9 30.18 1022 10 16.0934 0 0
9:55 pm 21:55 Cloudy 38 3.3 34 1.2 86 86 SW 7 11 30.18 1022 10 16.0934 0 0
10:15 pm 22:15 Cloudy 38 3.2 34 1.2 87 87 SSW 6 9 30.21 1023 10 16.0934 0 0
10:35 pm 22:35 Cloudy 38 3.3 34 1.1 86 86 SW 6 9 30.21 1023 10 16.0934 0 0
10:55 pm 22:55 Cloudy 38 3.2 34 1.2 87 87 SSW 5 7 30.21 1023 10 16.0934 0 0
11:15 pm 23:15 Cloudy 38 3.2 34 1.1 86 86 SW 6 9 30.21 1023 10 16.0934 0 0
11:35 pm 23:35 Cloudy 38 3.2 34 1 86 86 SW 5 7 30.21 1023 10 16.0934 0 0
11:55 pm 23:55 Cloudy 38 3.2 34 0.9 85 85 SW 6 9 30.21 1023 10 16.0934 0 0

Powered by AerisWeather